Regional Weather Roundup
Issued by NWS Sterling, VA

Home | Current Version | Previous Version | Text Only | Print | Product List | Glossary On
Versions: 1 2 3 4 5 6 7 8 9 10 11 12 13 14 15 16 17 18 19 20 21 22 23 24 25 26 27 28 29 30 31 32 33 34 35 36 37 38 39 40 41 42
000
ASUS41 KLWX 270110
RWRLWX

REGIONAL WEATHER ROUNDUP
NATIONAL WEATHER SERVICE BALTIMORE MD/WASHINGTON DC
800 PM EST FRI DEC 26 2014

Note: "FAIR" indicates few or no clouds below 12,000 feet
with no significant weather and/or obstructions to visibility.
 TC=TEMPERATURE CELSIUS

 * =Non NWS site. Station does not report precipitation (e.g. rain,
    snow, etc.), thunder, or fog.

DCZ001-MDZ009-015-VAZ040>042-051-053>054-270200-
WASHINGTON METRO

CITY           SKY/WX    TMP DP  RH WIND       PRES   REMARKS
WASHINGTON NAT PTCLDY    44  35  70 CALM      30.30R
DULLES         PTCLDY    33  29  85 SE3       30.28R
ANDREWS AFB    PTCLDY    34  31  88 S3        30.28R
FT BELVOIR     CLEAR     35  31  85 CALM      30.30R
QUANTICO       CLEAR     37  33  85 NW5       30.31R
COLLEGE PARK*  PTCLDY    36  34  93 CALM      30.28S
LEESBURG*      CLEAR     37  34  87 CALM      30.28S
MANASSAS*      PTCLDY    34  32  93 CALM      30.29S
GAITHERSBURG*  PTCLDY    39  28  65 CALM      30.31S

$$

MDZ006>007-011-014-270200-
BALTIMORE METRO

CITY           SKY/WX    TMP DP  RH WIND       PRES   REMARKS
BWI AIRPORT    PTCLDY    40  31  70 SW3       30.28R
MD SCIENCE CTR   N/A     45  31  58 MISG      30.28R
MARTIN STATE   CLEAR     37  36  93 CALM      30.30
ANNAPOLIS      CLEAR     37  33  85 CALM      30.29R
FORT MEADE*    CLEAR     32  30  93 CALM      30.31S

$$

MDZ012-015-019>023-270200-
MARYLAND EASTERN SHORE

CITY           SKY/WX    TMP DP  RH WIND       PRES   REMARKS
OCEAN CITY     CLEAR     33  31  92 SW5       30.31R
SALISBURY      CLEAR     34  29  82 NE3       30.30R
BAY BRIDGE AP*   N/A     41  32  70 S3        30.30R
CAMBRIDGE*     CLEAR     36  32  87 CALM      30.30R

$$

MDZ017>025-270200-
SOUTHERN MARYLAND

CITY           SKY/WX    TMP DP  RH WIND       PRES   REMARKS
PATUXENT RIVER PTCLDY    41  31  67 S6        30.30R
ST INIGOES     CLEAR     35  29  78 CALM      30.30R
LEONARDTOWN*   CLEAR     37  32  81 CALM      30.32R

$$

MDZ003>005-270200-
NORTH CENTRAL MARYLAND

CITY           SKY/WX    TMP DP  RH WIND       PRES   REMARKS
FREDERICK*     PTCLDY    36  32  87 CALM      30.30
HAGERSTOWN APT CLOUDY    43  30  60 SE3       30.25R
WESTMINSTER*   PTCLDY    39  30  70 CALM      30.26S

$$

MDZ501>502-270200-
WESTERN MARYLAND

CITY           SKY/WX    TMP DP  RH WIND       PRES   REMARKS
OAKLAND*       MOCLDY    39  18  41 SW8G16    30.21F
CUMBERLAND*    MOCLDY    39  32  75 CALM      30.28S

$$

VAZ025>031-270200-
SHENANDOAH VALLEY

CITY           SKY/WX    TMP DP  RH WIND       PRES   REMARKS
WINCHESTER*    MOCLDY    37  30  75 CALM      30.25S
FRONT ROYAL*   FAIR      39  32  75 S3        30.25R
LURAY*         FAIR      37  34  87 CALM      30.25S
NEW MARKET*    FAIR      35  32  88 CALM      30.25S
STAUNTON*      MOCLDY    41  26  55 CALM      30.28R
WAYNESBORO*    FAIR      43  22  44 CALM      30.25S

$$

WVZ021-048>050-054>055-270200-
EASTERN WEST VIRGINIA PANHANDLE

CITY           SKY/WX    TMP DP  RH WIND       PRES   REMARKS
MARTINSBURG    MOCLDY    37  27  67 CALM      30.25S
PETERSBURG*    CLOUDY    35  31  86 CALM      30.25R

$$

VAZ036>039-050-270200-
CENTRAL FOOTHILLS

CITY           SKY/WX    TMP DP  RH WIND       PRES   REMARKS
CHARLOTTESVILL MOCLDY    44  31  60 VRB3      30.27R
CULPEPER*      MOCLDY    34  32  93 CALM      30.29R
ORANGE*        MOCLDY    36  32  87 CALM      30.29S
GORDONSVILLE*  FAIR      33  31  90 CALM      30.28S
WARRENTON*     FAIR      31  31 100 CALM      30.28R

$$

VAZ055>057-270200-
NORTH AND CENTRAL PIEDMONT

CITY           SKY/WX    TMP DP  RH WIND       PRES   REMARKS
FREDERICKSBRG* PTCLDY    36  33  89 CALM      30.29R
STAFFORD*      PTCLDY    34  34 100 CALM      30.33S

$$

NCZ024-NYZ072-PAZ021-071-VAZ022-071-270200-
OTHER REGIONAL OBSERVATIONS

CITY           SKY/WX    TMP DP  RH WIND       PRES   REMARKS
NEW YORK CITY  CLEAR     46  29  51 VRB5      30.25R
PHILADELPHIA   MOCLDY    42  31  64 SW7       30.28R
PITTSBURGH     MOCLDY    41  31  67 S3        30.21S
ROANOKE        MOCLDY    45  28  51 CALM      30.30R
RICHMOND       PTCLDY    40  33  76 CALM      30.29S
RALEIGH        PTCLDY    40  34  79 CALM      30.31S

$$

ANZ530>537-270200-
MARINE OBSERVATIONS

STATION/POSITION TIME  TEMP    WIND        PRES
                       AIR SEA DIR/SP/G
                 (UTC) (F)     (DEG/KT/KT) (MB)
THOMAS PT LIGHT  0100   43 43  200/  9/ 10 1027.1R
BALT KEY BRIDGE  0100   46     210/  6/  8 1025.3S
COVE POINT       0100   42     190/  7/  8 1026.1R
LEWISETTA        0100   42 45  210/  3/  3 1025.9S
SOLOMONS ISLAND  0100      43                N/A
PINEY POINT      0100          180/  3/  4   N/A

$$



USA.gov is the U.S. government's official web portal to all federal, state and local government web resources and services.